[[{"header":{"parameterUnit":"m.s-1","parameterCategory":1,"la1":30.2991,"la2":30.254,"lo1":-89.0895,"lo2":-89.0444,"dy":0.0017,"dx":0.0017,"nx":28,"ny":28,"refTime":"2025-01-15T09:00:00:Z","depth":0,"parameterNumber":2,"parameterNumberName":"U-component_of_WINDS"},"data":[0,0,0,0,0,0,0,0,0,0,0,0,0,0,0,0,0,0,0,0,0,0,0,0,0,0,0,0,0,0,0,0,0,0,0,0,0,0,0,0,0,0,0,0,0,0,0,0,0,0,0,0,0,0,0,0,0,0,-4.1243,-4.1243,0,-4.1279,-4.128,-4.128,-4.1135,-4.1131,-4.1126,-4.1122,-4.116,-4.1165,-4.117,0,0,0,0,0,0,0,0,0,0,0,0,0,-4.1046,-4.1051,-4.1242,-4.1243,-4.1243,-4.1279,-4.128,-4.128,-4.1136,-4.1131,-4.1125,-4.1121,-4.1158,-4.1164,-4.117,0,0,0,0,0,0,0,0,0,0,0,0,0,-4.1112,-4.1052,-4.1242,-4.1176,-4.117,-4.1279,-4.128,-4.128,-4.1137,-4.113,-4.1124,-4.1118,-4.1156,-4.1163,-4.1171,-4.1346,0,0,-4.1194,-4.1197,0,0,0,0,0,0,0,0,-4.1109,-4.1119,-4.1185,-4.1181,-4.1174,-4.1196,-4.1224,-4.1302,-4.1139,-4.115,-4.1122,-4.1115,-4.1177,-4.1182,-4.1203,-4.1347,-4.1349,-4.1194,-4.1199,-4.1202,-4.1204,0,0,0,0,0,0,0,-4.1104,-4.1117,-4.1257,-4.1186,-4.118,-4.1144,-4.1146,-4.1238,-4.1199,-4.1148,-4.1138,-4.1144,-4.1173,-4.1196,-4.1203,-4.1349,-4.1194,-4.1201,-4.1205,-4.1208,-4.1638,-4.1644,0,0,0,0,0,0,-4.1109,-4.1114,-4.1256,-4.1258,-4.1125,-4.1152,-4.1155,-4.1196,-4.1197,-4.1192,-4.1149,-4.1137,-4.1187,-4.1195,-4.1204,-4.1408,-4.1202,-4.1209,-4.1213,-4.1631,-4.1639,-4.1647,0,0,0,0,0,0,-4.1105,-4.1123,-4.1254,-4.1183,-4.1197,-4.1163,-4.1209,-4.12,-4.1223,-4.1198,-4.1191,-4.1181,-4.1182,-4.1193,-4.1311,-4.1407,-4.1212,-4.1219,-4.1623,-4.1633,-4.1643,-4.1818,0,0,0,0,0,0,-4.11,-4.1122,-4.1189,-4.1186,-4.1202,-4.1362,-4.1215,-4.1205,-4.1236,-4.1221,-4.1226,-4.1221,-4.1178,-4.1301,-4.1319,-4.1414,-4.1225,-4.1614,-4.1627,-4.164,-4.1804,-4.1833,-4.1859,0,0,0,0,0,-4.1093,-4.1236,-4.1193,-4.1211,-4.1284,-4.1368,-4.1377,-4.1325,-4.1245,-4.1311,-4.1295,-4.122,-4.1394,-4.1314,-4.1333,-4.1432,-4.1608,-4.1624,-4.1639,-4.1791,-4.1827,-4.1858,0,0,0,0,0,0,-4.1251,-4.1235,-4.1186,-4.1333,-4.1353,-4.1343,-4.1425,-4.1365,-4.1408,-4.1391,-4.1325,-4.1327,-4.1457,-4.1456,-4.1367,-4.1601,-4.1487,-4.1507,-4.1596,-4.1631,-4.1658,-4.1655,-4.1231,0,0,0,0,0,-4.1303,-4.1373,-4.1354,-4.1486,-4.1498,-4.1461,-4.1495,-4.1453,-4.1471,-4.1479,-4.1471,-4.1492,-4.155,-4.159,-4.1643,-4.1803,-4.1802,-4.188,-4.1908,-4.193,-4.1948,-4.2032,-4.2067,-4.1698,-4.1698,-4.1697,0,0,-4.1411,-4.141,-4.1459,-4.1517,-4.1528,-4.1601,-4.1468,-4.1551,-4.1605,-4.1491,-4.1602,-4.1598,-4.1615,-4.1755,-4.1816,-4.1758,-4.205,-4.195,-4.1969,-4.1974,-4.2052,-4.2087,-4.2118,-4.1708,-4.1706,-4.1705,0,0,-4.1644,-4.1652,-4.1761,-4.1775,-4.1792,-4.1766,-4.1793,-4.1792,-4.1785,-4.1895,-4.1811,-4.1873,-4.1976,-4.1992,-4.2014,-4.2254,-4.2187,-4.2273,-4.2417,-4.2499,-4.2528,-4.2553,-4.2638,-4.267,-4.2291,-4.2292,-4.2292,0,-4.1776,-4.1883,-4.1825,-4.1914,-4.1942,-4.1843,-4.1953,-4.1968,-4.2003,-4.2024,-4.1959,-4.2086,-4.2091,-4.2233,-4.2291,-4.2312,-4.234,-4.2272,-4.2529,-4.2554,-4.2576,-4.2657,-4.2689,-4.2302,-4.2301,-4.23,-4.2299,0,-4.2044,-4.212,-4.2206,-4.2242,-4.2279,-4.2379,-4.2335,-4.238,-4.2336,-4.2316,-4.2429,-4.2432,-4.2483,-4.2514,-4.2471,-4.265,-4.2613,-4.254,-4.2424,-4.2623,-4.2697,-4.2727,-4.2317,-4.2313,-4.231,-4.2307,0,0,-4.2378,-4.238,-4.2413,-4.2427,-4.2439,-4.2497,-4.2591,-4.2641,-4.2681,-4.2708,-4.2785,-4.2875,-4.2807,-4.2831,-4.2789,-4.2862,-4.3051,-4.2779,-4.2778,-4.2829,-4.3247,-4.3302,-4.3339,-4.3007,-4.3012,-4.3017,-4.3246,0,-4.2606,-4.2768,-4.2719,-4.2881,-4.295,-4.2857,-4.2939,-4.2955,-4.294,-4.2995,-4.2978,-4.3042,-4.2948,-4.2962,-4.303,-4.3014,-4.3134,-4.2997,-4.3077,-4.3081,-4.3076,-4.3378,-4.3436,-4.3652,-4.3274,-4.3279,-4.3283,0,-4.2895,-4.2933,-4.3104,-4.3104,-4.3131,-4.3206,-4.3247,-4.3302,-4.3318,-4.3302,-4.333,-4.3273,-4.3365,-4.3249,-4.3375,-4.3283,-4.3313,-4.331,-4.3317,-4.3322,-4.3194,-4.3391,-4.372,-4.3752,-4.3328,-4.3324,-4.3321,0,-4.3121,-4.3215,-4.3329,-4.3344,-4.3348,-4.3402,-4.3406,-4.3416,-4.3449,-4.3486,-4.3507,-4.3554,-4.358,-4.3617,-4.3574,-4.3494,-4.3706,-4.3587,-4.3695,-4.3696,-4.3743,-4.3741,-4.4082,-4.3764,-4.3764,-4.3763,-4.3762,0,-4.3381,-4.3489,-4.343,-4.35,-4.3618,-4.3559,-4.3677,-4.367,-4.368,-4.3747,-4.3669,-4.3733,-4.3672,-4.3731,-4.3697,-4.3806,-4.3819,-4.3808,-4.3797,-4.3815,-4.3816,-4.3833,-4.3817,-4.3772,-4.377,-4.3768,-4.3767,0,-4.3653,-4.3618,-4.3736,-4.3729,-4.373,-4.3817,-4.3811,-4.3875,-4.3854,-4.394,-4.3956,-4.3923,-4.3988,-4.3949,-4.4015,-4.3992,-4.4134,-4.4103,-4.4129,-4.412,-4.423,-4.422,-4.4593,-4.4639,-4.4293,-4.4296,-4.4299,0,-4.3821,-4.3902,-4.3904,-4.3943,-4.3952,-4.4017,-4.405,-4.3996,-4.4034,-4.4058,-4.412,-4.4178,-4.4221,-4.4329,-4.4311,-4.4361,-4.433,-4.4458,-4.4337,-4.4352,-4.4332,-4.4328,-4.4335,-4.4482,-4.4486,-4.4489,-4.4492,0,-4.4124,-4.4102,-4.4154,-4.42,-4.4242,-4.4276,-4.4303,-4.4339,-4.4285,-4.4332,-4.4397,-4.4431,-4.4498,-4.4557,-4.4599,-4.4602,-4.4539,-4.453,-4.4558,-4.4576,-4.4587,-4.4582,-4.4195,-4.4522,-4.4519,-4.4517,-4.4515,-4.4514,-4.4348,-4.4415,-4.4427,-4.4487,-4.4502,-4.4529,-4.4589,-4.4575,-4.4629,-4.4679,-4.4644,-4.4722,-4.4735,-4.4785,-4.4796,-4.4856,-4.4804,-4.4844,-4.4854,-4.4865,-4.488,-4.4578,-4.4863,-4.4862,-4.4862,-4.4861,-4.486,0,-4.4646,-4.4649,-4.4705,-4.4745,-4.4792,-4.4729,-4.4755,-4.4799,-4.4868,-4.4886,-4.493,-4.5005,-4.5062,-4.5048,-4.5099,-4.5149,-4.5121,-4.5164,-4.5159,-4.5161,-4.4923,-4.4894,-4.5186,-4.5186,-4.5185,-4.5185,-4.5185,-4.5185,-4.4806,-4.4916,-4.4897,-4.5013,-4.5015,-4.509,-4.5111,-4.5135,-4.5149,-4.5236,-4.5283,-4.5274,-4.5279,-4.5329,-4.5378,-4.5372,-4.5394,-4.5448,-4.5432,-4.521,-4.5178,-4.5147,-4.512,-4.5454,-4.5454,-4.5665,-4.5667,-4.5668]},{"header":{"parameterUnit":"m.s-1","parameterCategory":1,"la1":30.2991,"la2":30.254,"lo1":-89.0895,"lo2":-89.0444,"dy":0.0017,"dx":0.0017,"nx":28,"ny":28,"refTime":"2025-01-15T09:00:00:Z","depth":0,"parameterNumber":3,"parameterNumberName":"V-component_of_WINDS"},"data":[0,0,0,0,0,0,0,0,0,0,0,0,0,0,0,0,0,0,0,0,0,0,0,0,0,0,0,0,0,0,0,0,0,0,0,0,0,0,0,0,0,0,0,0,0,0,0,0,0,0,0,0,0,0,0,0,0,0,0.1547,0.1548,0,0.1641,0.1642,0.1643,0.1741,0.1742,0.1743,0.1745,0.1837,0.1838,0.1839,0,0,0,0,0,0,0,0,0,0,0,0,0,0.145,0.1451,0.1547,0.1548,0.1549,0.1641,0.1642,0.1643,0.174,0.1742,0.1744,0.1745,0.1837,0.1838,0.1839,0,0,0,0,0,0,0,0,0,0,0,0,0,0.1512,0.1451,0.1547,0.1609,0.1615,0.164,0.1642,0.1643,0.174,0.1742,0.1744,0.1746,0.1836,0.1838,0.184,0.181,0,0,0.1845,0.1846,0,0,0,0,0,0,0,0,0.1509,0.1516,0.1599,0.1605,0.1612,0.1681,0.1642,0.1699,0.174,0.1693,0.1745,0.1747,0.1783,0.179,0.1803,0.1814,0.1818,0.1845,0.1846,0.1847,0.1848,0,0,0,0,0,0,0,0.1504,0.1512,0.1584,0.16,0.1608,0.1631,0.1643,0.1653,0.1725,0.1697,0.1704,0.1714,0.1787,0.1801,0.1805,0.1819,0.1845,0.1847,0.1848,0.1849,0.1811,0.1809,0,0,0,0,0,0,0.1491,0.1508,0.1581,0.1587,0.1564,0.1631,0.1644,0.1657,0.1725,0.1738,0.1712,0.1718,0.1797,0.1803,0.1809,0.1778,0.1847,0.1849,0.185,0.1813,0.181,0.1808,0,0,0,0,0,0,0.1488,0.1496,0.1577,0.155,0.1562,0.1631,0.1645,0.1658,0.1671,0.1737,0.175,0.1713,0.1798,0.1806,0.1809,0.1782,0.185,0.1851,0.1815,0.1812,0.1809,0.1715,0,0,0,0,0,0,0.1485,0.1495,0.1485,0.1549,0.1563,0.1576,0.1643,0.1658,0.1674,0.1683,0.1741,0.1752,0.1801,0.1806,0.1811,0.1786,0.1853,0.1818,0.1814,0.181,0.1721,0.1709,0.1699,0,0,0,0,0,0.1481,0.1454,0.1484,0.1492,0.1552,0.1574,0.1582,0.1639,0.1672,0.1662,0.1704,0.1751,0.1785,0.1805,0.1812,0.1787,0.182,0.1815,0.181,0.1726,0.1712,0.17,0,0,0,0,0,0,0.1383,0.1463,0.1497,0.149,0.1525,0.1591,0.158,0.1623,0.1648,0.1655,0.1724,0.1736,0.173,0.1759,0.178,0.1762,0.1809,0.1805,0.1742,0.1729,0.1719,0.1711,0.1854,0,0,0,0,0,0.1361,0.1374,0.1443,0.1429,0.1446,0.1509,0.1521,0.1563,0.1601,0.1616,0.1659,0.1693,0.1712,0.1723,0.1744,0.1727,0.174,0.1713,0.1702,0.1693,0.1688,0.168,0.1669,0.1793,0.1793,0.1793,0,0,0.1315,0.136,0.1364,0.1411,0.1443,0.1454,0.1521,0.153,0.1538,0.1617,0.1622,0.1655,0.1698,0.169,0.1689,0.1714,0.1657,0.1687,0.1679,0.1679,0.1674,0.1662,0.1652,0.179,0.179,0.1791,0,0,0.1236,0.1272,0.1264,0.1295,0.1344,0.1387,0.1385,0.1445,0.147,0.1476,0.1536,0.1547,0.1578,0.1606,0.1624,0.1557,0.16,0.1562,0.1504,0.1496,0.1486,0.1478,0.1452,0.1442,0.1558,0.1557,0.1557,0,0.1171,0.1191,0.1255,0.126,0.1279,0.1353,0.1345,0.1372,0.1423,0.1434,0.1463,0.1503,0.1538,0.1537,0.1521,0.1534,0.1533,0.1554,0.1483,0.1475,0.1468,0.1444,0.1435,0.1552,0.1553,0.1553,0.1554,0,0.1109,0.1122,0.111,0.1159,0.1177,0.1175,0.1238,0.1249,0.1289,0.1328,0.1334,0.1378,0.1409,0.1412,0.1451,0.1417,0.1431,0.147,0.1519,0.145,0.1429,0.142,0.1545,0.1547,0.1548,0.155,0,0,0.0968,0.1055,0.1049,0.1072,0.1131,0.1142,0.1144,0.1176,0.1182,0.1216,0.1218,0.1244,0.128,0.1301,0.1344,0.1337,0.1279,0.1377,0.1379,0.1355,0.1243,0.1211,0.12,0.1309,0.1308,0.1307,0.1239,0,0.0898,0.0907,0.0965,0.0956,0.0968,0.104,0.1041,0.1077,0.1115,0.1129,0.1171,0.1187,0.1235,0.1248,0.1244,0.1287,0.1257,0.1293,0.131,0.131,0.1295,0.119,0.1156,0.109,0.1231,0.123,0.1229,0,0.0816,0.0846,0.0839,0.0899,0.0906,0.0906,0.094,0.0954,0.0996,0.1024,0.1047,0.1096,0.1101,0.1149,0.1156,0.1179,0.119,0.1212,0.1211,0.1212,0.1263,0.1186,0.1071,0.1059,0.1217,0.1218,0.1219,0,0.0712,0.0751,0.0752,0.077,0.0839,0.0838,0.0867,0.0911,0.0927,0.0956,0.0966,0.0996,0.1011,0.1032,0.1087,0.1116,0.1087,0.1139,0.1109,0.1107,0.1097,0.1096,0.0979,0.1108,0.1108,0.1108,0.1108,0,0.0626,0.0619,0.0706,0.0706,0.0699,0.0767,0.0758,0.0793,0.0833,0.084,0.0904,0.0909,0.0983,0.0996,0.1039,0.1038,0.1045,0.1066,0.1077,0.1059,0.1056,0.1065,0.107,0.1105,0.1106,0.1107,0.1107,0,0.0508,0.0566,0.0572,0.0638,0.0654,0.0646,0.0703,0.0705,0.0747,0.0756,0.0762,0.0827,0.0847,0.0904,0.0938,0.0967,0.0952,0.0975,0.0938,0.0944,0.091,0.0911,0.0792,0.0779,0.0918,0.0916,0.0915,0,0.0448,0.0444,0.051,0.0521,0.0547,0.0563,0.0579,0.0645,0.0659,0.0708,0.0704,0.0729,0.0751,0.0779,0.0828,0.0854,0.0877,0.0833,0.0881,0.0862,0.0874,0.0872,0.0871,0.0822,0.082,0.0819,0.0817,0,0.0335,0.0364,0.0386,0.0418,0.0436,0.0464,0.0495,0.05,0.0574,0.0587,0.0608,0.0626,0.0661,0.0684,0.0718,0.0747,0.0793,0.0803,0.0797,0.0776,0.0754,0.0764,0.0907,0.0804,0.0806,0.0807,0.0807,0.0808,0.0243,0.0242,0.0289,0.0311,0.0342,0.037,0.0375,0.0419,0.0438,0.0472,0.0511,0.0527,0.0569,0.062,0.0646,0.0659,0.0684,0.0675,0.0673,0.0669,0.066,0.0754,0.0666,0.0666,0.0666,0.0667,0.0667,0,0.0131,0.0165,0.0185,0.0228,0.0245,0.029,0.0327,0.0338,0.0352,0.0388,0.041,0.0434,0.0457,0.0509,0.0537,0.0537,0.0559,0.0542,0.0541,0.0547,0.0637,0.0638,0.0524,0.0524,0.0524,0.0524,0.0524,0.0524,0.0075,0.0076,0.0111,0.0128,0.0163,0.018,0.0197,0.0223,0.0252,0.0276,0.0296,0.0331,0.0373,0.0405,0.0427,0.0442,0.0448,0.0423,0.0444,0.0527,0.054,0.0553,0.0555,0.0425,0.0425,0.0353,0.0353,0.0352]}]]